| time (UTC) | temp F | wind direction | speed knots | gust knots | rain 1hr in | rain 24hr in | rain mn in | humidity % | barometer mb |
| 20260509201300 | 87 | 104 | 0.9 | 3.5 | 0.00 | 0.00 | 0.00 | 49 | 1007.3 |
| 20260509200302 | 86 | 23 | 0.9 | 6.1 | 0.00 | 0.00 | 0.00 | 52 | 1007.4 |
| 20260509195717 | 86 | 0 | 0.0 | 2.6 | 0.00 | 0.00 | 0.00 | 50 | 1007.6 |
| 20260509195403 | 86 | 249 | 0.9 | 2.6 | 0.00 | 0.00 | 0.00 | 51 | 1007.4 |
| 20260509193753 | 86 | 90 | 0.9 | 3.5 | 0.00 | 0.00 | 0.00 | 52 | 1007.7 |
| 20260509192258 | 85 | 80 | 0.9 | 4.3 | 0.00 | 0.00 | 0.00 | 54 | 1007.8 |
| 20260509191751 | 85 | 91 | 1.7 | 4.3 | 0.00 | 0.00 | 0.00 | 53 | 1007.9 |
| 20260509190259 | 85 | 313 | 1.7 | 5.2 | 0.00 | 0.00 | 0.00 | 53 | 1007.9 |
| 20260509185313 | 85 | 189 | 0.9 | 4.3 | 0.00 | 0.00 | 0.00 | 54 | 1008.0 |
| 20260509184300 | 84 | 214 | 0.9 | 6.1 | 0.00 | 0.00 | 0.00 | 54 | 1008.2 |
| 20260509183308 | 84 | 71 | 1.7 | 5.2 | 0.00 | 0.00 | 0.00 | 55 | 1008.3 |
| 20260509182308 | 83 | 346 | 2.6 | 5.2 | 0.00 | 0.00 | 0.00 | 54 | 1008.3 |
| 20260509181258 | 83 | 178 | 1.7 | 6.1 | 0.00 | 0.00 | 0.00 | 55 | 1008.5 |
| 20260509180258 | 82 | 340 | 2.6 | 7.0 | 0.00 | 0.00 | 0.00 | 56 | 1008.5 |
| 20260509175259 | 82 | 284 | 3.5 | 7.0 | 0.00 | 0.00 | 0.00 | 56 | 1008.6 |
| 20260509174300 | 81 | 313 | 4.3 | 8.7 | 0.00 | 0.00 | 0.00 | 56 | 1008.6 |
| 20260509173301 | 81 | 310 | 3.5 | 6.1 | 0.00 | 0.00 | 0.00 | 58 | 1008.7 |
| 20260509172300 | 81 | 286 | 4.3 | 7.8 | 0.00 | 0.00 | 0.00 | 59 | 1008.7 |
| 20260509171259 | 80 | 288 | 4.3 | 8.7 | 0.00 | 0.00 | 0.00 | 59 | 1008.7 |
| 20260509170254 | 80 | 340 | 5.2 | 8.7 | 0.00 | 0.00 | 0.00 | 60 | 1008.9 |
| 20260509165253 | 80 | 294 | 5.2 | 9.6 | 0.00 | 0.00 | 0.00 | 61 | 1009.0 |
| 20260509164253 | 79 | 280 | 4.3 | 9.6 | 0.00 | 0.00 | 0.00 | 59 | 1009.1 |
| 20260509163254 | 79 | 301 | 4.3 | 9.6 | 0.00 | 0.00 | 0.00 | 61 | 1009.2 |
| 20260509162253 | 78 | 303 | 6.1 | 10.4 | 0.00 | 0.00 | 0.00 | 63 | 1009.2 |
| 20260509161253 | 77 | 342 | 5.2 | 10.4 | 0.00 | 0.00 | 0.00 | 62 | 1009.3 |
| 20260509160733 | 77 | 279 | 7.0 | 12.2 | 0.00 | 0.00 | 0.00 | 64 | 1009.1 |
| 20260509155254 | 77 | 292 | 7.0 | 10.4 | 0.00 | 0.00 | 0.00 | 64 | 1008.9 |
| 20260509154256 | 76 | 307 | 7.8 | 10.4 | 0.00 | 0.00 | 0.00 | 64 | 1008.9 |
| 20260509153248 | 76 | 298 | 6.1 | 12.2 | 0.00 | 0.00 | 0.00 | 66 | 1008.9 |
| 20260509152248 | 75 | 324 | 7.0 | 12.2 | 0.00 | 0.00 | 0.00 | 67 | 1008.9 |
| 20260509151248 | 74 | 344 | 6.1 | 12.2 | 0.00 | 0.00 | 0.00 | 68 | 1008.9 |
| 20260509150248 | 73 | 318 | 7.0 | 11.3 | 0.00 | 0.00 | 0.00 | 73 | 1009.0 |
| 20260509145248 | 73 | 320 | 5.2 | 11.3 | 0.00 | 0.00 | 0.00 | 73 | 1009.2 |
| 20260509143247 | 71 | 271 | 5.2 | 8.7 | 0.00 | 0.00 | 0.00 | 81 | 1009.3 |
| 20260509142246 | 70 | 279 | 4.3 | 8.7 | 0.00 | 0.00 | 0.00 | 81 | 1009.3 |
| 20260509141247 | 70 | 273 | 4.3 | 7.8 | 0.00 | 0.00 | 0.00 | 83 | 1009.3 |
| 20260509140241 | 70 | 284 | 5.2 | 7.8 | 0.00 | 0.00 | 0.00 | 82 | 1009.3 |
| 20260509135244 | 70 | 284 | 5.2 | 8.7 | 0.00 | 0.00 | 0.00 | 83 | 1009.3 |
| 20260509134242 | 69 | 281 | 6.1 | 8.7 | 0.00 | 0.00 | 0.00 | 83 | 1009.3 |
| 20260509133731 | 69 | 292 | 4.3 | 8.7 | 0.00 | 0.00 | 0.00 | 84 | 1009.2 |
| 20260509132723 | 68 | 287 | 4.3 | 8.7 | 0.00 | 0.00 | 0.00 | 84 | 1009.2 |
| 20260509131241 | 68 | 271 | 4.3 | 7.0 | 0.00 | 0.00 | 0.00 | 84 | 1009.0 |
| 20260509130245 | 67 | 301 | 3.5 | 7.0 | 0.00 | 0.00 | 0.00 | 84 | 1009.1 |
| 20260509125242 | 67 | 328 | 5.2 | 8.7 | 0.00 | 0.00 | 0.00 | 85 | 1008.9 |
| 20260509124242 | 67 | 298 | 4.3 | 7.8 | 0.00 | 0.00 | 0.00 | 85 | 1009.0 |
| 20260509123235 | 66 | 302 | 3.5 | 6.1 | 0.00 | 0.01 | 0.00 | 85 | 1009.0 |
| 20260509122639 | 66 | 321 | 3.5 | 7.0 | 0.00 | 0.02 | 0.00 | 84 | 1008.9 |
| 20260509122317 | 66 | 298 | 3.5 | 7.8 | 0.00 | 0.02 | 0.00 | 85 | 1008.9 |
| 20260509120237 | 66 | 326 | 3.5 | 7.0 | 0.00 | 0.03 | 0.00 | 84 | 1008.7 |
| 20260509115234 | 66 | 299 | 2.6 | 4.3 | 0.00 | 0.03 | 0.00 | 84 | 1008.7 |
| 20260509114235 | 66 | 298 | 2.6 | 5.2 | 0.00 | 0.03 | 0.00 | 84 | 1008.5 |
| 20260509113710 | 67 | 307 | 2.6 | 6.1 | 0.00 | 0.07 | 0.00 | 85 | 1008.2 |
| 20260509112235 | 67 | 300 | 2.6 | 6.1 | 0.00 | 0.07 | 0.00 | 85 | 1008.2 |
| 20260509111239 | 67 | 319 | 2.6 | 6.1 | 0.00 | 0.07 | 0.00 | 84 | 1008.0 |
| 20260509110230 | 68 | 308 | 3.5 | 7.8 | 0.00 | 0.07 | 0.00 | 84 | 1007.7 |
| 20260509105229 | 68 | 309 | 4.3 | 7.8 | 0.00 | 0.07 | 0.00 | 83 | 1007.8 |
| 20260509104230 | 69 | 314 | 3.5 | 7.0 | 0.00 | 0.07 | 0.00 | 82 | 1007.7 |
| 20260509103230 | 69 | 288 | 4.3 | 7.8 | 0.00 | 0.07 | 0.00 | 80 | 1007.9 |
| 20260509102228 | 70 | 298 | 3.5 | 7.0 | 0.00 | 0.07 | 0.00 | 78 | 1007.9 |
| 20260509101231 | 70 | 350 | 2.6 | 7.0 | 0.00 | 0.07 | 0.00 | 77 | 1007.6 |
| 20260509100230 | 70 | 342 | 1.7 | 4.3 | 0.00 | 0.09 | 0.00 | 78 | 1007.7 |
| 20260509095228 | 70 | 322 | 1.7 | 3.5 | 0.00 | 0.25 | 0.00 | 76 | 1007.6 |
| 20260509094230 | 70 | 338 | 0.9 | 4.3 | 0.00 | 0.26 | 0.00 | 76 | 1007.5 |
| 20260509093224 | 70 | 26 | 0.0 | 2.6 | 0.00 | 0.26 | 0.00 | 74 | 1007.0 |
| 20260509092714 | 71 | 355 | 0.9 | 6.1 | 0.00 | 0.26 | 0.00 | 74 | 1006.6 |
| 20260509091224 | 70 | 72 | 1.7 | 9.6 | 0.00 | 0.26 | 0.00 | 74 | 1006.3 |
| 20260509090223 | 69 | 347 | 1.7 | 11.3 | 0.00 | 0.26 | 0.00 | 80 | 1005.8 |
| 20260509085223 | 69 | 207 | 4.3 | 7.8 | 0.00 | 0.26 | 0.00 | 80 | 1005.2 |
| 20260509085145 | 69 | 184 | 4.3 | 9.6 | 0.00 | 0.26 | 0.00 | 80 | 1005.0 |
| 20260509083225 | 69 | 150 | 6.1 | 13.9 | 0.00 | 0.26 | 0.00 | 79 | 1005.0 |
| 20260509082223 | 70 | 227 | 5.2 | 16.5 | 0.00 | 0.26 | 0.00 | 74 | 1005.3 |
| 20260509081224 | 72 | 301 | 0.0 | 0.9 | 0.00 | 0.26 | 0.00 | 69 | 1004.2 |
| 20260509080707 | 73 | 301 | 0.9 | 3.5 | 0.00 | 0.26 | 0.00 | 64 | 1004.7 |
| 20260509075217 | 71 | 324 | 1.7 | 3.5 | 0.00 | 0.26 | 0.00 | 71 | 1005.8 |
| 20260509074216 | 69 | 256 | 4.3 | 7.8 | 0.00 | 0.26 | 0.00 | 82 | 1006.7 |
| 20260509073219 | 69 | 248 | 4.3 | 8.7 | 0.00 | 0.26 | 0.00 | 86 | 1007.6 |
| 20260509072700 | 69 | 200 | 5.2 | 8.7 | 0.00 | 0.26 | 0.00 | 88 | 1008.0 |
| 20260509071216 | 69 | 206 | 6.1 | 8.7 | 0.00 | 0.26 | 0.00 | 89 | 1008.4 |
| 20260509071135 | 69 | 219 | 7.0 | 9.6 | 0.00 | 0.26 | 0.00 | 89 | 1008.7 |
| 20260509065216 | 69 | 231 | 6.1 | 10.4 | 0.00 | 0.30 | 0.00 | 90 | 1009.2 |
| 20260509064220 | 69 | 217 | 4.3 | 7.0 | 0.00 | 0.37 | 0.00 | 89 | 1009.6 |
| 20260509063215 | 69 | 238 | 4.3 | 7.8 | 0.00 | 0.43 | 0.00 | 89 | 1009.6 |
| 20260509062211 | 69 | 289 | 3.5 | 7.0 | 0.00 | 0.43 | 0.00 | 89 | 1009.8 |
| 20260509061211 | 69 | 275 | 2.6 | 3.5 | 0.00 | 0.43 | 0.00 | 88 | 1009.8 |
| 20260509060212 | 69 | 257 | 1.7 | 3.5 | 0.00 | 0.43 | 0.00 | 87 | 1009.7 |
| 20260509055210 | 69 | 331 | 0.0 | 2.6 | 0.00 | 0.43 | 0.00 | 87 | 1009.7 |
| 20260509054212 | 70 | 348 | 0.9 | 3.5 | 0.00 | 0.43 | 0.00 | 87 | 1009.2 |
| 20260509053209 | 70 | 355 | 0.9 | 4.3 | 0.00 | 0.43 | 0.00 | 87 | 1009.6 |
| 20260509052209 | 70 | 349 | 2.6 | 4.3 | 0.00 | 0.43 | 0.00 | 86 | 1009.8 |
| 20260509051208 | 70 | 344 | 2.6 | 5.2 | 0.00 | 0.43 | 0.00 | 86 | 1009.7 |
| 20260509050645 | 71 | 344 | 0.9 | 4.3 | 0.00 | 0.43 | 0.00 | 85 | 1009.8 |
| 20260509045209 | 71 | 163 | 0.9 | 4.3 | 0.00 | 0.43 | 0.43 | 85 | 1008.7 |
| 20260509044209 | 71 | 162 | 1.7 | 6.1 | 0.00 | 0.43 | 0.43 | 85 | 1008.4 |
| 20260509043208 | 71 | 160 | 1.7 | 6.1 | 0.00 | 0.43 | 0.43 | 85 | 1008.4 |
| 20260509042703 | 71 | 164 | 1.7 | 6.1 | 0.00 | 0.43 | 0.43 | 84 | 1008.3 |
| 20260509041209 | 71 | 144 | 0.9 | 1.7 | 0.00 | 0.43 | 0.43 | 84 | 1008.2 |
| 20260509040209 | 71 | 152 | 0.0 | 2.6 | 0.00 | 0.43 | 0.43 | 83 | 1008.3 |
| 20260509035209 | 71 | 71 | 0.0 | 2.6 | 0.00 | 0.43 | 0.43 | 82 | 1008.3 |
| 20260509034202 | 71 | 75 | 0.9 | 2.6 | 0.00 | 0.43 | 0.43 | 83 | 1008.4 |
| 20260509033202 | 71 | 76 | 0.9 | 3.5 | 0.00 | 0.43 | 0.43 | 82 | 1008.4 |
| 20260509032203 | 72 | 82 | 0.9 | 3.5 | 0.00 | 0.43 | 0.43 | 82 | 1008.1 |
| 20260509031203 | 72 | 82 | 0.9 | 5.2 | 0.00 | 0.43 | 0.43 | 81 | 1007.6 |
| 20260509030201 | 72 | 110 | 1.7 | 5.2 | 0.00 | 0.43 | 0.43 | 81 | 1007.0 |
| 20260509025202 | 72 | 148 | 0.9 | 5.2 | 0.00 | 0.43 | 0.43 | 81 | 1006.6 |
| 20260509024637 | 72 | 134 | 0.9 | 3.5 | 0.00 | 0.43 | 0.43 | 81 | 1006.7 |
| 20260509023201 | 72 | 154 | 1.7 | 5.2 | 0.00 | 0.43 | 0.43 | 80 | 1006.3 |
| 20260509022200 | 72 | 165 | 0.9 | 4.3 | 0.00 | 0.43 | 0.43 | 80 | 1006.3 |
| 20260509021204 | 72 | 165 | 1.7 | 4.3 | 0.00 | 0.43 | 0.43 | 80 | 1006.3 |
| 20260509020205 | 72 | 138 | 2.6 | 7.0 | 0.00 | 0.43 | 0.43 | 80 | 1006.0 |
| 20260509015159 | 72 | 140 | 3.5 | 9.6 | 0.00 | 0.43 | 0.43 | 79 | 1006.1 |
| 20260509014200 | 72 | 165 | 1.7 | 7.0 | 0.00 | 0.43 | 0.43 | 79 | 1006.4 |
| 20260509013158 | 72 | 167 | 0.9 | 4.3 | 0.00 | 0.43 | 0.43 | 79 | 1006.7 |
| 20260509012648 | 72 | 185 | 0.0 | 1.7 | 0.00 | 0.43 | 0.43 | 79 | 1006.7 |
| 20260509011157 | 72 | 185 | 1.7 | 6.1 | 0.00 | 0.43 | 0.43 | 79 | 1006.6 |
| 20260509010154 | 72 | 167 | 1.7 | 7.0 | 0.00 | 0.43 | 0.43 | 79 | 1006.3 |
| 20260509005152 | 72 | 169 | 4.3 | 11.3 | 0.00 | 0.43 | 0.43 | 79 | 1006.2 |
| 20260509004644 | 72 | 167 | 4.3 | 8.7 | 0.00 | 0.43 | 0.43 | 78 | 1006.1 |
| 20260509003153 | 72 | 190 | 6.1 | 11.3 | 0.00 | 0.43 | 0.43 | 78 | 1006.1 |
| 20260509002152 | 73 | 185 | 5.2 | 10.4 | 0.00 | 0.43 | 0.43 | 78 | 1006.1 |
| 20260509001150 | 73 | 202 | 6.1 | 11.3 | 0.00 | 0.43 | 0.43 | 77 | 1006.1 |
| 20260509001139 | 73 | 168 | 5.2 | 9.6 | 0.00 | 0.43 | 0.43 | 77 | 1006.2 |
| 20260508235632 | 73 | 215 | 3.5 | 7.0 | 0.00 | 0.43 | 0.43 | 77 | 1006.3 |
| 20260508234152 | 73 | 172 | 4.3 | 8.7 | 0.00 | 0.43 | 0.43 | 76 | 1006.4 |
| 20260508233151 | 73 | 184 | 5.2 | 10.4 | 0.00 | 0.43 | 0.43 | 76 | 1006.4 |
| 20260508232628 | 73 | 167 | 4.3 | 9.6 | 0.00 | 0.43 | 0.43 | 75 | 1006.4 |
| 20260508231150 | 73 | 166 | 5.2 | 9.6 | 0.00 | 0.43 | 0.43 | 75 | 1006.4 |
| 20260508230152 | 73 | 192 | 5.2 | 10.4 | 0.00 | 0.43 | 0.43 | 73 | 1006.5 |
| 20260508225150 | 74 | 152 | 3.5 | 8.7 | 0.00 | 0.43 | 0.43 | 73 | 1006.4 |
| 20260508225118 | 74 | 181 | 3.5 | 8.7 | 0.00 | 0.43 | 0.43 | 72 | 1006.5 |
| 20260508223148 | 74 | 163 | 2.6 | 7.8 | 0.00 | 0.43 | 0.43 | 71 | 1006.6 |
| 20260508222150 | 75 | 181 | 3.5 | 10.4 | 0.00 | 0.43 | 0.43 | 70 | 1006.6 |
| 20260508221629 | 75 | 132 | 2.6 | 7.8 | 0.00 | 0.43 | 0.43 | 70 | 1006.6 |
| 20260508220148 | 75 | 131 | 3.5 | 8.7 | 0.00 | 0.43 | 0.43 | 69 | 1006.5 |
| 20260508215146 | 75 | 185 | 3.5 | 8.7 | 0.00 | 0.43 | 0.43 | 68 | 1006.6 |
| 20260508214148 | 76 | 165 | 3.5 | 12.2 | 0.00 | 0.43 | 0.43 | 67 | 1006.7 |
| 20260508213144 | 75 | 163 | 2.6 | 8.7 | 0.00 | 0.43 | 0.43 | 66 | 1006.7 |
| 20260508212143 | 75 | 157 | 2.6 | 9.6 | 0.00 | 0.43 | 0.43 | 65 | 1006.9 |
| 20260508211143 | 75 | 167 | 2.6 | 10.4 | 0.00 | 0.43 | 0.43 | 66 | 1007.1 |
| 20260508210142 | 75 | 138 | 5.2 | 13.9 | 0.00 | 0.43 | 0.43 | 66 | 1007.2 |
| 20260508205637 | 75 | 138 | 3.5 | 8.7 | 0.00 | 0.43 | 0.43 | 66 | 1007.5 |
| 20260508204142 | 74 | 152 | 1.7 | 7.8 | 0.00 | 0.43 | 0.43 | 66 | 1007.7 |
| 20260508203142 | 74 | 140 | 1.7 | 8.7 | 0.00 | 0.43 | 0.43 | 66 | 1007.6 |
| 20260508202140 | 74 | 148 | 2.6 | 7.8 | 0.00 | 0.43 | 0.43 | 66 | 1007.9 |